Location: Skalnate Pleso
(49.1889°N, 20.2450°E)
Time: 06:51:55
(UTC+01:00)

Cosmos 2333 Rocket - Pass Details

Date: 19 November 2019
Orbit: 837 x 865 km, 70.8° (Epoch: 12 December)

Event Time Altitude Azimuth Distance (km) Brightness Sun altitude
Exits shadow 04:25:56 10° 346° (NNW) 2,527 4.5 -24.0°
Reaches altitude 10° 04:25:58 10° 346° (NNW) 2,516 4.5 -24.0°
Maximum altitude 04:30:55 28° 45° (NE) 1,569 4.0 -23.2°
Drops below altitude 10° 04:35:50 10° 103° (ESE) 2,506 5.8 -22.4°
Sets 04:38:38 0° 115° (ESE) 3,438 6.6 -21.9°
